Location: Unspecified
(0.0000°N, 0.0000°E)
Time: 19:08:18
(UTC+00:00)

Courier 1B - Pass Details

Date: 26 November 2019
Orbit: 963 x 1209 km, 28.3° (Epoch: 06 December)

Event Time Altitude Azimuth Distance (km) Brightness Sun altitude
Rises 19:03:32 0° 209° (SSW) 3,924 11.5 -17.7°
Reaches altitude 10° 19:09:07 10° 175° (S) 3,033 10.3 -19.0°
Maximum altitude 19:11:05 11° 160° (SSE) 2,973 10.0 -19.5°
Drops below altitude 10° 19:13:04 10° 144° (SE) 3,074 10.0 -20.0°
Enters shadow 19:15:53 - 126° (SE) 3,460 10.1 -20.6°
